STARLINK-36147, 66987

Orbit data source: Space-Track

STARLINK-36147, 66987 is a payload satellite owned by SpaceX/Seattle (US) in LEO that was launched on Mon, 08 Dec 2025 UTC via an FALCON 9 launch vehicle from the Air Force Eastern Test Range (AFETR). Payload-class satellites include a variety of spacecraft equipped with specific instruments for various scientific and technological missions. These include communications satellites like Starlink; space stations such as the ISS; scientific satellites like the Hubble; Earth observation satellites from companies like Planet Labs, Umbra, and HawkEye 360; GPS; miniature CubeSats for education and research; and military/defense satellites.

Loading next visibility...
Identifier
66987, 2025-288AE
Orbit
LEO
Country
Flag of USUS
Related business
Manufacturer
SpaceX/Seattle
Mission
Operational Commercial Communications
Bus & Motor
STARLINK V2MO, Unknown motor
Mass
575 kg wet, ~530 kg dry
Launch date (UTC)
2025-12-08 (7 months ago)
Launch vehicle
FALCON 9
Launch site
Air Force Eastern Test Range (AFETR)
Object type
Payload
Rocket body
Debris
Shape & HBR
Box + 2 Pan, 17.7 m
Radar Cross Section
36.964 m², Large (>1 m²)

Expand to show TLE details & history
Last TLE update: 12 hours ago

TLE from 12 hours ago
0 STARLINK-36147
1 66987U 25288AE  26177.59431536  .00016337  00000-0  60208-3 0  9999
2 66987  43.0010 128.3501 0001975 279.5365  80.5263 15.27568599 31943
Epoch: 2026-06-26T14:15Z
TLE epoch observation values (Epoch: 2026-06-26T14:15:48.847Z)
Latitude
-0.00003°
Longitude
-0.32404°
Altitude
482.636 km
Speed
7.626 km/s
True Right ascension
08h 33m 24s
True Declination
0° 00' 00"
Sunlit
Object was in daylight at epoch
Visualization orbit readout
Latitude
Unknown
Longitude
Unknown
Altitude
Unknown
Speed
Unknown
Apparent Right ascension
Unknown
Apparent Declination
Unknown
Sunlit
N/A
Visualization observer readout
Local Sidereal Time
13:32:22
Azimuth
Unknown
Elevation
Unknown
Doppler factor
Unknown
Orbital elements
Apogee altitude
486.384 km
Perigee altitude
483.673 km
Semi-major axis
6,863.165 km
Eccentricity
0.0002
Inclination
43.001°
RAAN
128.3501°
Arg. of periapsis
279.5365°
True anomaly
80.54862°
Mean anomaly
80.5263°
Eccentric anomaly
80.53746°
Mean motion
3.8173 °/min
Orbital period
94.31 mins
BSTAR
0.00060208
Loading maneuver chart data...
Computing Atmospheric mass density...
Loading historical data...
Loading historical data...
Loading historical data...
Loading historical data...
Loading historical data...
Loading historical data...
Loading historical data...

Documentation

Showing up to 5 results
|